owner,sensor,date,latitude,longitude,vertical_datum,wind_speed,wind_to_direction,wind_speed_of_gust,qcFlag 
NOS,ioos:station:wmo:fpst2:1,2018-08-01T01:06:00Z,28.9360,-95.2940,15.0,2.5,308.0,2.8,'11111222,11111222,11111222' 
NOS,ioos:station:wmo:fpst2:1,2018-08-01T01:12:00Z,28.9360,-95.2940,15.0,3.4,331.0,4.3,'11111222,11111222,11111222' 
NOS,ioos:station:wmo:fpst2:1,2018-08-01T01:18:00Z,28.9360,-95.2940,15.0,2.9,324.0,3.7,'11111222,11111222,11111222' 
NOS,ioos:station:wmo:fpst2:1,2018-08-01T01:24:00Z,28.9360,-95.2940,15.0,2.3,333.0,3.9,'11111222,11111222,11111222' 
NOS,ioos:station:wmo:fpst2:1,2018-08-01T01:30:00Z,28.9360,-95.2940,15.0,2.1,334.0,2.4,'11111222,11111222,11111222' 
NOS,ioos:station:wmo:fpst2:1,2018-08-01T01:36:00Z,28.9360,-95.2940,15.0,3.1,338.0,3.7,'11111222,11111222,11111222' 
NOS,ioos:station:wmo:fpst2:1,2018-08-01T01:42:00Z,28.9360,-95.2940,15.0,2.8,341.0,3.7,'11111222,11111222,11111222' 
NOS,ioos:station:wmo:fpst2:1,2018-08-01T01:48:00Z,28.9360,-95.2940,15.0,2.7,352.0,3.9,'11111222,11111222,11111222' 
NOS,ioos:station:wmo:fpst2:1,2018-08-01T01:54:00Z,28.9360,-95.2940,15.0,3.1,360.0,4.1,'11111222,11144222,11111222' 
NOS,ioos:station:wmo:fpst2:1,2018-08-01T02:00:00Z,28.9360,-95.2940,15.0,2.8,3.0,3.4,'11111222,11111222,11111222' 
NOS,ioos:station:wmo:fpst2:1,2018-08-01T02:06:00Z,28.9360,-95.2940,15.0,2.5,6.0,3.3,'11111222,11111222,11111222' 
NOS,ioos:station:wmo:fpst2:1,2018-08-01T02:12:00Z,28.9360,-95.2940,15.0,2.7,11.0,3.1,'11111222,11111222,11111222' 
NOS,ioos:station:wmo:fpst2:1,2018-08-01T02:18:00Z,28.9360,-95.2940,15.0,3.5,5.0,4.0,'11111222,11111222,11111222' 
NOS,ioos:station:wmo:fpst2:1,2018-08-01T02:24:00Z,28.9360,-95.2940,15.0,3.8,13.0,4.3,'11111222,11111222,11111222' 
NOS,ioos:station:wmo:fpst2:1,2018-08-01T02:30:00Z,28.9360,-95.2940,15.0,3.6,15.0,4.4,'11111222,11111222,11111222' 
NOS,ioos:station:wmo:fpst2:1,2018-08-01T02:36:00Z,28.9360,-95.2940,15.0,3.1,14.0,4.1,'11111222,11111222,11111222' 
NOS,ioos:station:wmo:fpst2:1,2018-08-01T02:42:00Z,28.9360,-95.2940,15.0,2.9,5.0,3.6,'11111222,11111222,11111222' 
NOS,ioos:station:wmo:fpst2:1,2018-08-01T02:48:00Z,28.9360,-95.2940,15.0,2.7,9.0,3.4,'11111222,11111222,11111222' 
NOS,ioos:station:wmo:fpst2:1,2018-08-01T02:54:00Z,28.9360,-95.2940,15.0,2.6,9.0,3.2,'11111222,11111222,11111222' 
NOS,ioos:station:wmo:fpst2:1,2018-08-01T03:00:00Z,28.9360,-95.2940,15.0,3.0,6.0,3.4,'11111222,11111222,11111222' 
NOS,ioos:station:wmo:fpst2:1,2018-08-01T03:06:00Z,28.9360,-95.2940,15.0,2.7,3.0,3.4,'11111222,11111222,11111222' 
NOS,ioos:station:wmo:fpst2:1,2018-08-01T03:12:00Z,28.9360,-95.2940,15.0,2.2,5.0,3.2,'11111222,11111222,11111222' 
NOS,ioos:station:wmo:fpst2:1,2018-08-01T03:18:00Z,28.9360,-95.2940,15.0,1.6,1.0,3.1,'11111222,11111222,11111222' 
NOS,ioos:station:wmo:fpst2:1,2018-08-01T03:24:00Z,28.9360,-95.2940,15.0,1.3,16.0,2.0,'11111222,11111222,11111222' 
NOS,ioos:station:wmo:fpst2:1,2018-08-01T03:30:00Z,28.9360,-95.2940,15.0,1.4,4.0,1.8,'11111222,11111222,11111222' 
NOS,ioos:station:wmo:fpst2:1,2018-08-01T03:36:00Z,28.9360,-95.2940,15.0,0.9,7.0,1.5,'11111222,11111222,11111222' 
NOS,ioos:station:wmo:fpst2:1,2018-08-01T03:42:00Z,28.9360,-95.2940,15.0,0.8,359.0,1.0,'11111222,11111222,11111222' 
NOS,ioos:station:wmo:fpst2:1,2018-08-01T03:48:00Z,28.9360,-95.2940,15.0,0.0,16.0,0.9,'11111222,11111222,11111222' 
NOS,ioos:station:wmo:fpst2:1,2018-08-01T03:54:00Z,28.9360,-95.2940,15.0,0.6,322.0,0.9,'11111222,11111222,11111222' 
NOS,ioos:station:wmo:fpst2:1,2018-08-01T04:00:00Z,28.9360,-95.2940,15.0,0.9,9.0,1.3,'11111222,11111222,11111222' 
NOS,ioos:station:wmo:fpst2:1,2018-08-01T04:06:00Z,28.9360,-95.2940,15.0,0.7,351.0,1.0,'11111222,11111222,11111222' 
NOS,ioos:station:wmo:fpst2:1,2018-08-01T04:12:00Z,28.9360,-95.2940,15.0,0.8,350.0,1.0,'11111222,11111222,11111222' 
NOS,ioos:station:wmo:fpst2:1,2018-08-01T04:18:00Z,28.9360,-95.2940,15.0,1.7,349.0,2.0,'11111222,11111222,11111222' 
NOS,ioos:station:wmo:fpst2:1,2018-08-01T04:24:00Z,28.9360,-95.2940,15.0,2.5,346.0,2.7,'11111222,11111222,11111222' 
NOS,ioos:station:wmo:fpst2:1,2018-08-01T04:30:00Z,28.9360,-95.2940,15.0,2.0,343.0,2.5,'11111222,11111222,11111222' 
NOS,ioos:station:wmo:fpst2:1,2018-08-01T04:36:00Z,28.9360,-95.2940,15.0,1.8,335.0,2.2,'11111222,11111222,11111222' 
NOS,ioos:station:wmo:fpst2:1,2018-08-01T04:42:00Z,28.9360,-95.2940,15.0,2.2,341.0,2.4,'11111222,11111222,11111222' 
NOS,ioos:station:wmo:fpst2:1,2018-08-01T04:48:00Z,28.9360,-95.2940,15.0,2.1,339.0,2.5,'11111222,11111222,11111222' 
NOS,ioos:station:wmo:fpst2:1,2018-08-01T04:54:00Z,28.9360,-95.2940,15.0,1.8,337.0,2.0,'11111222,11111222,11111222' 
NOS,ioos:station:wmo:fpst2:1,2018-08-01T05:00:00Z,28.9360,-95.2940,15.0,2.0,349.0,2.2,'11111222,11111222,11111222' 
NOS,ioos:station:wmo:fpst2:1,2018-08-01T05:06:00Z,28.9360,-95.2940,15.0,1.5,357.0,2.3,'11111222,11111222,11111222' 
NOS,ioos:station:wmo:fpst2:1,2018-08-01T05:12:00Z,28.9360,-95.2940,15.0,1.6,350.0,1.7,'11111222,11111222,11111222' 
NOS,ioos:station:wmo:fpst2:1,2018-08-01T05:18:00Z,28.9360,-95.2940,15.0,2.5,349.0,2.8,'11111222,11111222,11111222' 
NOS,ioos:station:wmo:fpst2:1,2018-08-01T05:24:00Z,28.9360,-95.2940,15.0,2.1,343.0,2.7,'11111222,11111222,11111222' 
NOS,ioos:station:wmo:fpst2:1,2018-08-01T05:30:00Z,28.9360,-95.2940,15.0,1.7,0.0,2.5,'11111222,11111222,11111222' 
NOS,ioos:station:wmo:fpst2:1,2018-08-01T05:36:00Z,28.9360,-95.2940,15.0,1.1,351.0,1.9,'11111222,11111222,11111222' 
NOS,ioos:station:wmo:fpst2:1,2018-08-01T05:42:00Z,28.9360,-95.2940,15.0,0.9,339.0,1.3,'11111222,11111222,11111222' 
NOS,ioos:station:wmo:fpst2:1,2018-08-01T05:48:00Z,28.9360,-95.2940,15.0,0.8,355.0,1.1,'11111222,11111222,11111222' 
NOS,ioos:station:wmo:fpst2:1,2018-08-01T05:54:00Z,28.9360,-95.2940,15.0,1.0,344.0,1.2,'11111222,11111222,11111222' 
NOS,ioos:station:wmo:fpst2:1,2018-08-01T06:00:00Z,28.9360,-95.2940,15.0,1.4,354.0,1.5,'11111222,11111222,11111222' 
NOS,ioos:station:wmo:fpst2:1,2018-08-01T06:06:00Z,28.9360,-95.2940,15.0,1.8,358.0,2.0,'11111222,11111222,11111222' 
NOS,ioos:station:wmo:fpst2:1,2018-08-01T06:12:00Z,28.9360,-95.2940,15.0,1.7,3.0,2.1,'11111222,11111222,11111222' 
NOS,ioos:station:wmo:fpst2:1,2018-08-01T06:18:00Z,28.9360,-95.2940,15.0,1.7,8.0,1.8,'11111222,11111222,11111222' 
NOS,ioos:station:wmo:fpst2:1,2018-08-01T06:24:00Z,28.9360,-95.2940,15.0,1.7,9.0,1.9,'11111222,11111222,11111222' 
NOS,ioos:station:wmo:fpst2:1,2018-08-01T06:30:00Z,28.9360,-95.2940,15.0,2.1,359.0,2.4,'11111222,11111222,11111222' 
NOS,ioos:station:wmo:fpst2:1,2018-08-01T06:36:00Z,28.9360,-95.2940,15.0,2.2,343.0,2.5,'11111222,11111222,11111222' 
NOS,ioos:station:wmo:fpst2:1,2018-08-01T06:42:00Z,28.9360,-95.2940,15.0,2.0,349.0,2.3,'11111222,11111222,11111222' 
NOS,ioos:station:wmo:fpst2:1,2018-08-01T06:48:00Z,28.9360,-95.2940,15.0,2.0,353.0,2.2,'11111222,11111222,11111222' 
NOS,ioos:station:wmo:fpst2:1,2018-08-01T06:54:00Z,28.9360,-95.2940,15.0,2.6,347.0,2.7,'11111222,11111222,11111222' 
NOS,ioos:station:wmo:fpst2:1,2018-08-01T07:00:00Z,28.9360,-95.2940,15.0,2.4,345.0,2.6,'11111222,11111222,11111222' 
NOS,ioos:station:wmo:fpst2:1,2018-08-01T07:06:00Z,28.9360,-95.2940,15.0,2.3,345.0,2.4,'11111222,11111222,11111222' 
NOS,ioos:station:wmo:fpst2:1,2018-08-01T07:12:00Z,28.9360,-95.2940,15.0,2.3,346.0,2.5,'11111222,11111222,11111222' 
NOS,ioos:station:wmo:fpst2:1,2018-08-01T07:18:00Z,28.9360,-95.2940,15.0,2.5,340.0,2.6,'11111222,11111222,11111222' 
NOS,ioos:station:wmo:fpst2:1,2018-08-01T07:24:00Z,28.9360,-95.2940,15.0,2.5,343.0,2.6,'11111222,11111222,11111222' 
NOS,ioos:station:wmo:fpst2:1,2018-08-01T07:30:00Z,28.9360,-95.2940,15.0,2.0,0.0,2.5,'11111222,11111222,11111222' 
NOS,ioos:station:wmo:fpst2:1,2018-08-01T07:36:00Z,28.9360,-95.2940,15.0,1.9,2.0,2.2,'11111222,11111222,11111222' 
NOS,ioos:station:wmo:fpst2:1,2018-08-01T07:42:00Z,28.9360,-95.2940,15.0,1.8,355.0,2.2,'11111222,11111222,11111222' 
NOS,ioos:station:wmo:fpst2:1,2018-08-01T07:48:00Z,28.9360,-95.2940,15.0,1.7,352.0,1.9,'11111222,11111222,11111222' 
NOS,ioos:station:wmo:fpst2:1,2018-08-01T07:54:00Z,28.9360,-95.2940,15.0,1.8,356.0,2.2,'11111222,11111222,11111222' 
NOS,ioos:station:wmo:fpst2:1,2018-08-01T08:00:00Z,28.9360,-95.2940,15.0,1.7,343.0,2.0,'11111222,11111222,11111222' 
NOS,ioos:station:wmo:fpst2:1,2018-08-01T08:06:00Z,28.9360,-95.2940,15.0,1.4,1.0,1.8,'11111222,11111222,11111222' 
NOS,ioos:station:wmo:fpst2:1,2018-08-01T08:12:00Z,28.9360,-95.2940,15.0,1.8,346.0,2.0,'11111222,11111222,11111222' 
NOS,ioos:station:wmo:fpst2:1,2018-08-01T08:18:00Z,28.9360,-95.2940,15.0,2.1,342.0,2.6,'11111222,11111222,11111222' 
NOS,ioos:station:wmo:fpst2:1,2018-08-01T08:24:00Z,28.9360,-95.2940,15.0,2.2,338.0,2.3,'11111222,11111222,11111222' 
NOS,ioos:station:wmo:fpst2:1,2018-08-01T08:30:00Z,28.9360,-95.2940,15.0,2.3,328.0,2.4,'11111222,11111222,11111222' 
NOS,ioos:station:wmo:fpst2:1,2018-08-01T08:36:00Z,28.9360,-95.2940,15.0,1.8,331.0,2.2,'11111222,11111222,11111222' 
NOS,ioos:station:wmo:fpst2:1,2018-08-01T08:42:00Z,28.9360,-95.2940,15.0,2.0,335.0,2.4,'11111222,11111222,11111222' 
NOS,ioos:station:wmo:fpst2:1,2018-08-01T08:48:00Z,28.9360,-95.2940,15.0,1.1,300.0,1.6,'11111222,11111222,11111222' 
NOS,ioos:station:wmo:fpst2:1,2018-08-01T08:54:00Z,28.9360,-95.2940,15.0,1.9,301.0,2.1,'11111222,11111222,11111222' 
NOS,ioos:station:wmo:fpst2:1,2018-08-01T09:00:00Z,28.9360,-95.2940,15.0,2.0,300.0,2.2,'11111222,11111222,11111222' 
NOS,ioos:station:wmo:fpst2:1,2018-08-01T09:06:00Z,28.9360,-95.2940,15.0,2.5,306.0,2.6,'11111222,11111222,11111222' 
NOS,ioos:station:wmo:fpst2:1,2018-08-01T09:12:00Z,28.9360,-95.2940,15.0,2.1,292.0,2.4,'11111222,11111222,11111222' 
NOS,ioos:station:wmo:fpst2:1,2018-08-01T09:18:00Z,28.9360,-95.2940,15.0,2.7,308.0,2.8,'11111222,11111222,11111222' 
NOS,ioos:station:wmo:fpst2:1,2018-08-01T09:24:00Z,28.9360,-95.2940,15.0,2.7,323.0,3.3,'11111222,11111222,11111222' 
NOS,ioos:station:wmo:fpst2:1,2018-08-01T09:30:00Z,28.9360,-95.2940,15.0,3.5,323.0,4.1,'11111222,11111222,11111222' 
NOS,ioos:station:wmo:fpst2:1,2018-08-01T09:36:00Z,28.9360,-95.2940,15.0,3.2,323.0,4.3,'11111222,11111222,11111222' 
NOS,ioos:station:wmo:fpst2:1,2018-08-01T09:42:00Z,28.9360,-95.2940,15.0,3.1,328.0,3.6,'11111222,11111222,11111222' 
NOS,ioos:station:wmo:fpst2:1,2018-08-01T09:48:00Z,28.9360,-95.2940,15.0,2.8,333.0,3.7,'11111222,11111222,11111222' 
NOS,ioos:station:wmo:fpst2:1,2018-08-01T09:54:00Z,28.9360,-95.2940,15.0,3.0,331.0,4.8,'11111222,11111222,11111222' 
NOS,ioos:station:wmo:fpst2:1,2018-08-01T10:00:00Z,28.9360,-95.2940,15.0,3.1,326.0,4.0,'11111222,11111222,11111222' 
NOS,ioos:station:wmo:fpst2:1,2018-08-01T10:06:00Z,28.9360,-95.2940,15.0,3.3,323.0,4.2,'11111222,11111222,11111222' 
NOS,ioos:station:wmo:fpst2:1,2018-08-01T10:12:00Z,28.9360,-95.2940,15.0,4.1,314.0,4.9,'11111222,11111222,11111222' 
NOS,ioos:station:wmo:fpst2:1,2018-08-01T10:18:00Z,28.9360,-95.2940,15.0,4.5,314.0,5.2,'11111222,11111222,11111222' 
NOS,ioos:station:wmo:fpst2:1,2018-08-01T10:24:00Z,28.9360,-95.2940,15.0,4.1,320.0,5.4,'11111222,11111222,11111222' 
NOS,ioos:station:wmo:fpst2:1,2018-08-01T10:30:00Z,28.9360,-95.2940,15.0,3.9,318.0,5.3,'11111222,11111222,11111222' 
NOS,ioos:station:wmo:fpst2:1,2018-08-01T10:36:00Z,28.9360,-95.2940,15.0,4.4,316.0,5.7,'11111222,11111222,11111222' 
NOS,ioos:station:wmo:fpst2:1,2018-08-01T10:42:00Z,28.9360,-95.2940,15.0,4.2,318.0,5.8,'11111222,11111222,11111222' 
NOS,ioos:station:wmo:fpst2:1,2018-08-01T10:48:00Z,28.9360,-95.2940,15.0,4.1,313.0,5.1,'11111222,11111222,11111222' 
NOS,ioos:station:wmo:fpst2:1,2018-08-01T10:54:00Z,28.9360,-95.2940,15.0,3.7,320.0,5.0,'11111222,11111222,11111222' 
NOS,ioos:station:wmo:fpst2:1,2018-08-01T11:00:00Z,28.9360,-95.2940,15.0,3.4,324.0,4.5,'11111222,11111222,11111222' 
NOS,ioos:station:wmo:fpst2:1,2018-08-01T11:06:00Z,28.9360,-95.2940,15.0,3.8,327.0,5.2,'11111222,11111222,11111222' 
NOS,ioos:station:wmo:fpst2:1,2018-08-01T11:12:00Z,28.9360,-95.2940,15.0,3.5,334.0,5.6,'11111222,11111222,11111222' 
NOS,ioos:station:wmo:fpst2:1,2018-08-01T11:18:00Z,28.9360,-95.2940,15.0,4.2,331.0,5.4,'11111222,11111222,11111222' 
NOS,ioos:station:wmo:fpst2:1,2018-08-01T11:24:00Z,28.9360,-95.2940,15.0,3.6,328.0,5.2,'11111222,11111222,11111222' 
NOS,ioos:station:wmo:fpst2:1,2018-08-01T11:30:00Z,28.9360,-95.2940,15.0,4.0,329.0,5.5,'11111222,11111222,11111222' 
NOS,ioos:station:wmo:fpst2:1,2018-08-01T11:36:00Z,28.9360,-95.2940,15.0,3.6,329.0,4.7,'11111222,11111222,11111222' 
NOS,ioos:station:wmo:fpst2:1,2018-08-01T11:42:00Z,28.9360,-95.2940,15.0,2.9,325.0,4.1,'11111222,11111222,11111222' 
NOS,ioos:station:wmo:fpst2:1,2018-08-01T11:48:00Z,28.9360,-95.2940,15.0,3.4,320.0,4.6,'11111222,11111222,11111222' 
NOS,ioos:station:wmo:fpst2:1,2018-08-01T11:54:00Z,28.9360,-95.2940,15.0,2.9,322.0,3.7,'11111222,11111222,11111222' 
NOS,ioos:station:wmo:fpst2:1,2018-08-01T12:00:00Z,28.9360,-95.2940,15.0,3.8,323.0,4.8,'11111222,11111222,11111222' 
NOS,ioos:station:wmo:fpst2:1,2018-08-01T12:06:00Z,28.9360,-95.2940,15.0,3.6,322.0,4.8,'11111222,11111222,11111222' 
NOS,ioos:station:wmo:fpst2:1,2018-08-01T12:12:00Z,28.9360,-95.2940,15.0,3.5,325.0,4.6,'11111222,11111222,11111222' 
NOS,ioos:station:wmo:fpst2:1,2018-08-01T12:18:00Z,28.9360,-95.2940,15.0,3.5,324.0,5.4,'11111222,11111222,11111222' 
NOS,ioos:station:wmo:fpst2:1,2018-08-01T12:24:00Z,28.9360,-95.2940,15.0,3.6,331.0,4.6,'11111222,11111222,11111222' 
NOS,ioos:station:wmo:fpst2:1,2018-08-01T12:30:00Z,28.9360,-95.2940,15.0,4.5,333.0,6.0,'11111222,11111222,11111222' 
NOS,ioos:station:wmo:fpst2:1,2018-08-01T12:36:00Z,28.9360,-95.2940,15.0,4.2,327.0,5.8,'11111222,11111222,11111222' 
NOS,ioos:station:wmo:fpst2:1,2018-08-01T12:42:00Z,28.9360,-95.2940,15.0,4.1,330.0,5.4,'11111222,11111222,11111222' 
NOS,ioos:station:wmo:fpst2:1,2018-08-01T12:48:00Z,28.9360,-95.2940,15.0,4.1,334.0,5.2,'11111222,11111222,11111222' 
NOS,ioos:station:wmo:fpst2:1,2018-08-01T12:54:00Z,28.9360,-95.2940,15.0,3.3,340.0,5.2,'11111222,11111222,11111222' 
NOS,ioos:station:wmo:fpst2:1,2018-08-01T13:00:00Z,28.9360,-95.2940,15.0,4.0,339.0,4.9,'11111222,11111222,11111222' 
NOS,ioos:station:wmo:fpst2:1,2018-08-01T13:06:00Z,28.9360,-95.2940,15.0,2.9,332.0,4.6,'11111222,11111222,11111222' 
NOS,ioos:station:wmo:fpst2:1,2018-08-01T13:12:00Z,28.9360,-95.2940,15.0,3.3,334.0,4.2,'11111222,11111222,11111222' 
NOS,ioos:station:wmo:fpst2:1,2018-08-01T13:18:00Z,28.9360,-95.2940,15.0,2.2,351.0,3.4,'11111222,11111222,11111222' 
NOS,ioos:station:wmo:fpst2:1,2018-08-01T13:24:00Z,28.9360,-95.2940,15.0,2.5,347.0,3.6,'11111222,11111222,11111222' 
NOS,ioos:station:wmo:fpst2:1,2018-08-01T13:30:00Z,28.9360,-95.2940,15.0,2.4,338.0,3.8,'11111222,11111222,11111222' 
NOS,ioos:station:wmo:fpst2:1,2018-08-01T13:36:00Z,28.9360,-95.2940,15.0,3.0,344.0,3.7,'11111222,11111222,11111222' 
NOS,ioos:station:wmo:fpst2:1,2018-08-01T13:42:00Z,28.9360,-95.2940,15.0,3.0,348.0,4.0,'11111222,11111222,11111222' 
NOS,ioos:station:wmo:fpst2:1,2018-08-01T13:48:00Z,28.9360,-95.2940,15.0,4.0,340.0,5.3,'11111222,11111222,11111222' 
NOS,ioos:station:wmo:fpst2:1,2018-08-01T13:54:00Z,28.9360,-95.2940,15.0,3.9,351.0,5.0,'11111222,11111222,11111222' 
NOS,ioos:station:wmo:fpst2:1,2018-08-01T14:00:00Z,28.9360,-95.2940,15.0,4.4,342.0,5.5,'11111222,11111222,11111222' 
NOS,ioos:station:wmo:fpst2:1,2018-08-01T14:06:00Z,28.9360,-95.2940,15.0,4.5,336.0,5.8,'11111222,11111222,11111222' 
NOS,ioos:station:wmo:fpst2:1,2018-08-01T14:12:00Z,28.9360,-95.2940,15.0,4.0,343.0,4.8,'11111222,11111222,11111222' 
NOS,ioos:station:wmo:fpst2:1,2018-08-01T14:18:00Z,28.9360,-95.2940,15.0,4.6,341.0,5.9,'11111222,11111222,11111222' 
NOS,ioos:station:wmo:fpst2:1,2018-08-01T14:24:00Z,28.9360,-95.2940,15.0,3.8,338.0,5.8,'11111222,11111222,11111222' 
NOS,ioos:station:wmo:fpst2:1,2018-08-01T14:30:00Z,28.9360,-95.2940,15.0,3.5,342.0,5.0,'11111222,11111222,11111222' 
NOS,ioos:station:wmo:fpst2:1,2018-08-01T14:36:00Z,28.9360,-95.2940,15.0,4.1,339.0,6.0,'11111222,11111222,11111222' 
NOS,ioos:station:wmo:fpst2:1,2018-08-01T14:42:00Z,28.9360,-95.2940,15.0,4.4,331.0,5.2,'11111222,11111222,11111222' 
NOS,ioos:station:wmo:fpst2:1,2018-08-01T14:48:00Z,28.9360,-95.2940,15.0,4.1,335.0,5.8,'11111222,11111222,11111222' 
NOS,ioos:station:wmo:fpst2:1,2018-08-01T14:54:00Z,28.9360,-95.2940,15.0,4.0,342.0,5.5,'11111222,11111222,11111222' 
NOS,ioos:station:wmo:fpst2:1,2018-08-01T15:00:00Z,28.9360,-95.2940,15.0,3.8,352.0,5.8,'11111222,11111222,11111222' 
NOS,ioos:station:wmo:fpst2:1,2018-08-01T15:06:00Z,28.9360,-95.2940,15.0,3.5,340.0,5.1,'11111222,11111222,11111222' 
NOS,ioos:station:wmo:fpst2:1,2018-08-01T15:12:00Z,28.9360,-95.2940,15.0,4.1,1.0,5.8,'11111222,11111222,11111222' 
NOS,ioos:station:wmo:fpst2:1,2018-08-01T15:18:00Z,28.9360,-95.2940,15.0,4.5,350.0,5.5,'11111222,11111222,11111222' 
NOS,ioos:station:wmo:fpst2:1,2018-08-01T15:24:00Z,28.9360,-95.2940,15.0,5.0,341.0,5.8,'11111222,11111222,11111222' 
NOS,ioos:station:wmo:fpst2:1,2018-08-01T15:30:00Z,28.9360,-95.2940,15.0,4.4,345.0,5.6,'11111222,11111222,11111222' 
NOS,ioos:station:wmo:fpst2:1,2018-08-01T15:36:00Z,28.9360,-95.2940,15.0,4.5,354.0,5.2,'11111222,11111222,11111222' 
NOS,ioos:station:wmo:fpst2:1,2018-08-01T15:42:00Z,28.9360,-95.2940,15.0,3.7,333.0,5.2,'11111222,11111222,11111222' 
NOS,ioos:station:wmo:fpst2:1,2018-08-01T15:48:00Z,28.9360,-95.2940,15.0,4.1,2.0,5.2,'11111222,11111222,11111222' 
NOS,ioos:station:wmo:fpst2:1,2018-08-01T15:54:00Z,28.9360,-95.2940,15.0,3.6,355.0,5.1,'11111222,11111222,11111222' 
NOS,ioos:station:wmo:fpst2:1,2018-08-01T16:00:00Z,28.9360,-95.2940,15.0,4.1,360.0,5.7,'11111222,11144222,11111222' 
NOS,ioos:station:wmo:fpst2:1,2018-08-01T16:06:00Z,28.9360,-95.2940,15.0,3.7,4.0,5.0,'11111222,11111222,11111222' 
NOS,ioos:station:wmo:fpst2:1,2018-08-01T16:12:00Z,28.9360,-95.2940,15.0,2.9,344.0,4.2,'11111222,11111222,11111222' 
NOS,ioos:station:wmo:fpst2:1,2018-08-01T16:18:00Z,28.9360,-95.2940,15.0,3.5,7.0,5.0,'11111222,11111222,11111222' 
NOS,ioos:station:wmo:fpst2:1,2018-08-01T16:24:00Z,28.9360,-95.2940,15.0,3.9,0.0,4.5,'11111222,11111222,11111222' 
NOS,ioos:station:wmo:fpst2:1,2018-08-01T16:30:00Z,28.9360,-95.2940,15.0,2.7,5.0,4.2,'11111222,11111222,11111222' 
NOS,ioos:station:wmo:fpst2:1,2018-08-01T16:36:00Z,28.9360,-95.2940,15.0,3.3,8.0,4.2,'11111222,11111222,11111222' 
NOS,ioos:station:wmo:fpst2:1,2018-08-01T16:42:00Z,28.9360,-95.2940,15.0,3.1,16.0,4.6,'11111222,11111222,11111222' 
NOS,ioos:station:wmo:fpst2:1,2018-08-01T16:48:00Z,28.9360,-95.2940,15.0,1.6,38.0,4.7,'11111222,11111222,11111222' 
NOS,ioos:station:wmo:fpst2:1,2018-08-01T16:54:00Z,28.9360,-95.2940,15.0,3.3,21.0,4.2,'11111222,11111222,11111222' 
NOS,ioos:station:wmo:fpst2:1,2018-08-01T17:00:00Z,28.9360,-95.2940,15.0,1.7,42.0,3.5,'11111222,11111222,11111222' 
NOS,ioos:station:wmo:fpst2:1,2018-08-01T17:06:00Z,28.9360,-95.2940,15.0,2.9,43.0,3.8,'11111222,11111222,11111222' 
NOS,ioos:station:wmo:fpst2:1,2018-08-01T17:12:00Z,28.9360,-95.2940,15.0,3.7,28.0,4.3,'11111222,11111222,11111222' 
NOS,ioos:station:wmo:fpst2:1,2018-08-01T17:18:00Z,28.9360,-95.2940,15.0,3.2,94.0,4.0,'11111222,11111222,11111222' 
NOS,ioos:station:wmo:fpst2:1,2018-08-01T17:24:00Z,28.9360,-95.2940,15.0,4.7,99.0,5.0,'11111222,11111222,11111222' 
NOS,ioos:station:wmo:fpst2:1,2018-08-01T17:30:00Z,28.9360,-95.2940,15.0,4.2,95.0,4.7,'11111222,11111222,11111222' 
NOS,ioos:station:wmo:fpst2:1,2018-08-01T17:36:00Z,28.9360,-95.2940,15.0,4.3,96.0,4.6,'11111222,11111222,11111222' 
NOS,ioos:station:wmo:fpst2:1,2018-08-01T17:42:00Z,28.9360,-95.2940,15.0,5.3,106.0,5.9,'11111222,11111222,11111222' 
NOS,ioos:station:wmo:fpst2:1,2018-08-01T17:48:00Z,28.9360,-95.2940,15.0,5.2,109.0,5.8,'11111222,11111222,11111222' 
NOS,ioos:station:wmo:fpst2:1,2018-08-01T17:54:00Z,28.9360,-95.2940,15.0,5.3,100.0,6.0,'11111222,11111222,11111222' 
NOS,ioos:station:wmo:fpst2:1,2018-08-01T18:00:00Z,28.9360,-95.2940,15.0,4.9,107.0,5.7,'11111222,11111222,11111222' 
NOS,ioos:station:wmo:fpst2:1,2018-08-01T18:06:00Z,28.9360,-95.2940,15.0,5.8,113.0,6.6,'11111222,11111222,11111222' 
NOS,ioos:station:wmo:fpst2:1,2018-08-01T18:12:00Z,28.9360,-95.2940,15.0,5.2,111.0,5.9,'11111222,11111222,11111222' 
NOS,ioos:station:wmo:fpst2:1,2018-08-01T18:18:00Z,28.9360,-95.2940,15.0,4.5,108.0,5.7,'11111222,11111222,11111222' 
NOS,ioos:station:wmo:fpst2:1,2018-08-01T18:24:00Z,28.9360,-95.2940,15.0,4.6,96.0,5.1,'11111222,11111222,11111222' 
NOS,ioos:station:wmo:fpst2:1,2018-08-01T18:30:00Z,28.9360,-95.2940,15.0,4.5,101.0,4.9,'11111222,11111222,11111222' 
NOS,ioos:station:wmo:fpst2:1,2018-08-01T18:36:00Z,28.9360,-95.2940,15.0,4.3,108.0,5.0,'11111222,11111222,11111222' 
NOS,ioos:station:wmo:fpst2:1,2018-08-01T18:42:00Z,28.9360,-95.2940,15.0,4.9,98.0,5.4,'11111222,11111222,11111222' 
NOS,ioos:station:wmo:fpst2:1,2018-08-01T18:48:00Z,28.9360,-95.2940,15.0,4.4,112.0,5.1,'11111222,11111222,11111222' 
NOS,ioos:station:wmo:fpst2:1,2018-08-01T18:54:00Z,28.9360,-95.2940,15.0,4.9,117.0,5.5,'11111222,11111222,11111222' 
NOS,ioos:station:wmo:fpst2:1,2018-08-01T19:00:00Z,28.9360,-95.2940,15.0,4.8,120.0,5.6,'11111222,11111222,11111222' 
NOS,ioos:station:wmo:fpst2:1,2018-08-01T19:06:00Z,28.9360,-95.2940,15.0,5.2,115.0,5.6,'11111222,11111222,11111222' 
NOS,ioos:station:wmo:fpst2:1,2018-08-01T19:12:00Z,28.9360,-95.2940,15.0,4.7,128.0,5.5,'11111222,11111222,11111222' 
NOS,ioos:station:wmo:fpst2:1,2018-08-01T19:18:00Z,28.9360,-95.2940,15.0,4.4,118.0,4.8,'11111222,11111222,11111222' 
NOS,ioos:station:wmo:fpst2:1,2018-08-01T19:24:00Z,28.9360,-95.2940,15.0,4.6,101.0,5.1,'11111222,11111222,11111222' 
NOS,ioos:station:wmo:fpst2:1,2018-08-01T19:30:00Z,28.9360,-95.2940,15.0,4.9,108.0,5.4,'11111222,11111222,11111222' 
NOS,ioos:station:wmo:fpst2:1,2018-08-01T19:36:00Z,28.9360,-95.2940,15.0,4.5,105.0,5.7,'11111222,11111222,11111222' 
NOS,ioos:station:wmo:fpst2:1,2018-08-01T19:42:00Z,28.9360,-95.2940,15.0,4.7,102.0,5.0,'11111222,11111222,11111222' 
NOS,ioos:station:wmo:fpst2:1,2018-08-01T19:48:00Z,28.9360,-95.2940,15.0,5.0,93.0,5.5,'11111222,11111222,11111222' 
NOS,ioos:station:wmo:fpst2:1,2018-08-01T19:54:00Z,28.9360,-95.2940,15.0,4.7,101.0,5.7,'11111222,11111222,11111222' 
NOS,ioos:station:wmo:fpst2:1,2018-08-01T20:00:00Z,28.9360,-95.2940,15.0,4.9,94.0,5.6,'11111222,11111222,11111222' 
NOS,ioos:station:wmo:fpst2:1,2018-08-01T20:06:00Z,28.9360,-95.2940,15.0,5.6,94.0,6.2,'11111222,11111222,11111222' 
NOS,ioos:station:wmo:fpst2:1,2018-08-01T20:12:00Z,28.9360,-95.2940,15.0,5.0,100.0,6.1,'11111222,11111222,11111222' 
NOS,ioos:station:wmo:fpst2:1,2018-08-01T20:18:00Z,28.9360,-95.2940,15.0,4.8,107.0,5.7,'11111222,11111222,11111222' 
NOS,ioos:station:wmo:fpst2:1,2018-08-01T20:24:00Z,28.9360,-95.2940,15.0,4.0,112.0,5.3,'11111222,11111222,11111222' 
NOS,ioos:station:wmo:fpst2:1,2018-08-01T20:30:00Z,28.9360,-95.2940,15.0,4.9,108.0,5.6,'11111222,11111222,11111222' 
NOS,ioos:station:wmo:fpst2:1,2018-08-01T20:36:00Z,28.9360,-95.2940,15.0,5.2,91.0,5.7,'11111222,11111222,11111222' 
NOS,ioos:station:wmo:fpst2:1,2018-08-01T20:42:00Z,28.9360,-95.2940,15.0,4.7,106.0,5.3,'11111222,11111222,11111222' 
NOS,ioos:station:wmo:fpst2:1,2018-08-01T20:48:00Z,28.9360,-95.2940,15.0,4.2,109.0,5.3,'11111222,11111222,11111222' 
NOS,ioos:station:wmo:fpst2:1,2018-08-01T20:54:00Z,28.9360,-95.2940,15.0,3.2,118.0,4.3,'11111222,11111222,11111222' 
NOS,ioos:station:wmo:fpst2:1,2018-08-01T21:00:00Z,28.9360,-95.2940,15.0,3.3,124.0,4.0,'11111222,11111222,11111222' 
NOS,ioos:station:wmo:fpst2:1,2018-08-01T21:06:00Z,28.9360,-95.2940,15.0,3.3,115.0,3.9,'11111222,11111222,11111222' 
NOS,ioos:station:wmo:fpst2:1,2018-08-01T21:12:00Z,28.9360,-95.2940,15.0,2.9,111.0,3.4,'11111222,11111222,11111222' 
NOS,ioos:station:wmo:fpst2:1,2018-08-01T21:18:00Z,28.9360,-95.2940,15.0,3.8,106.0,4.4,'11111222,11111222,11111222' 
NOS,ioos:station:wmo:fpst2:1,2018-08-01T21:24:00Z,28.9360,-95.2940,15.0,4.0,127.0,4.4,'11111222,11111222,11111222' 
NOS,ioos:station:wmo:fpst2:1,2018-08-01T21:30:00Z,28.9360,-95.2940,15.0,3.4,121.0,4.2,'11111222,11111222,11111222' 
NOS,ioos:station:wmo:fpst2:1,2018-08-01T21:36:00Z,28.9360,-95.2940,15.0,3.7,119.0,4.0,'11111222,11111222,11111222' 